Regional Weather Roundup
Issued by NWS

Home | Current Version | Previous Version | Graphics & Text | Print | Product List | Glossary On
Versions: 1 2 3 4 5 6 7 8 9 10 11 12 13 14 15 16 17 18 19 20 21 22 23 24 25 26 27 28 29 30 31 32 33 34 35 36 37 38 39 40 41 42 43 44 45 46 47 48 49 50
000
ASUS43 KIND 010309
RWRIN

WEATHER ROUNDUP FOR INDIANA
NATIONAL WEATHER SERVICE INDIANAPOLIS IN
1000 PM EST SAT JAN 31 2015

NOTE: "FAIR" INDICATES FEW OR NO CLOUDS BELOW 12,000 FEET WITH NO
SIGNIFICANT WEATHER AND/OR OBSTRUCTIONS TO VISIBILITY.

* - STATION DOES NOT REPORT WEATHER SUCH AS PRECIPITATION OR FOG.

+ - STATION NOT QUALITY CONTROLLED BY THE NATIONAL WEATHER SERVICE.
    USE DATA WITH CAUTION...ESPECIALLY DEWPOINT AND RELATIVE
    HUMIDITY OBSERVATIONS.

INZ001>003-010>013-019-020-010400-
NORTHWEST INDIANA

CITY           SKY/WX    TMP DP  RH WIND       PRES   REMARKS
GARY /AIRPORT/ RAIN      35  31  87 CALM      30.16F
KNOX *+        CLOUDY    32  28  86 S3        30.16F VSB 1
LA PORTE +     LGT SNOW  34  34 100 CALM      30.16F
MICHIGAN CITY+ MIX PCPN  32  32 100 CALM      30.17F
MONTICELLO +   LGT SNOW  32  32  99 SW9       30.19S WCI  24
RENSSELAER +   LGT SNOW  32  32 100 S10       30.17F VSB 1   WCI  24
VALPARAISO     LGT SNOW  32  32 100 SW5       30.16F FOG     WCI  27

$$

LMZ046-743>745-010400-
SOUTHERN LAKE MICHIGAN

STATION/POSITION TIME  TEMP WIND        PRES
                       AIR  DIR/SP/G
                 (UTC) (F)  (DEG/KT/KT) (MB)
MICHIGAN CITY    0300   33  200/  2/  2   N/A

$$

INZ004-005-014>016-021>024-010400-
NORTH CENTRAL INDIANA

CITY           SKY/WX    TMP DP  RH WIND       PRES   REMARKS
GOSHEN         LGT SNOW  33  29  85 SW5       30.16F FOG     WCI  29
LOGANSPORT +   LGT SNOW  32  32 100 SW12      30.19F WCI  23
PERU/GRISSOM   LGT SNOW  33  32  96 SW13      30.17F FOG     WCI  23
ROCHESTER +    LGT SNOW  34  34 100 SW6       30.18S WCI  29
SOUTH BEND     LGT SNOW  34  31  88 SW6       30.16F FOG     WCI  29
WARSAW +       CLOUDY    34  30  86 SW5       30.17F WCI  30

$$

INZ006>009-017-018-025>027-010400-
NORTHEAST INDIANA

CITY           SKY/WX    TMP DP  RH WIND       PRES   REMARKS
ANGOLA *+      CLOUDY    34  27  75 CALM      30.15F
AUBURN +       CLOUDY    34  28  80 SW8       30.17F WCI  27
FORT WAYNE     CLOUDY    34  29  82 SW8       30.18F WCI  27
HUNTINGTON +   CLOUDY    33  28  80 SW8       30.18F WCI  26

$$

INZ028-029-035-036-043>045-051>053-010400-
WEST CENTRAL INDIANA

CITY           SKY/WX    TMP DP  RH WIND       PRES   REMARKS
CRAWFORDSVL +  LGT SNOW  31  28  90 S5        30.21F WCI  26
GREENCASTLE +  MIX PCPN  32  30  93 SE3       30.21F
LAFAYETTE      LGT SNOW  32  31  96 S6        30.20F FOG     WCI  26
TERRE HAUTE    LGT RAIN  33  31  92 E3        30.21F FOG

$$

INZ030>032-037>040-046>048-054>057-064-065-010400-
CENTRAL INDIANA

CITY           SKY/WX    TMP DP  RH WIND       PRES   REMARKS
CP ATTERBURY + LGT RAIN  32  30  93 CALM      30.24F
COLUMBUS       FLURRIES  32  28  86 E7        30.24F WCI  26
FRANKFORT +    LGT SNOW N/A N/A N/A S7        30.22F
GREENWOOD *+   CLOUDY    32  28  86 S6        30.23F WCI  26
INDIANAPOLIS   LGT SNOW  30  29  96 S6        30.22F FOG     WCI  24
-EAGLE CREEK   LGT SNOW  31  30  96 S3        30.21F FOG
KOKOMO *+      CLOUDY    34  30  86 SW13      30.20F WCI  25
MARION +       LGT SNOW  32  32  99 SW10      30.20F WCI  24
MT COMFORT *+  CLOUDY    32 N/A N/A S5        30.22F WCI  27
SHELBYVILLE    MIX PCPN  33  30  88 S6        30.23F FOG     WCI  28
ZIONSVILLE +   LGT SNOW  32  29  89 SW5       30.21F WCI  28

$$

INZ033-034-041-042-049-050-058-059-010400-
EAST CENTRAL INDIANA

CITY           SKY/WX    TMP DP  RH WIND       PRES   REMARKS
MUNCIE         LGT SNOW  33  30  88 MISG      30.20F FOG

$$

INZ060-061-067>069-081>083-085>088-010400-
SOUTHWEST INDIANA

CITY           SKY/WX    TMP DP  RH WIND       PRES   REMARKS
EVANSVILLE     CLOUDY    40  25  55 E6        30.20F
HUNTINGBURG *+ CLOUDY    36  25  64 SE9       30.21F
WASHINGTON +   CLOUDY    34  27  75 E5        30.20F WCI  30

$$

INZ062-063-066-070>080-084-089>092-010400-
SOUTH CENTRAL AND SOUTHEAST INDIANA

CITY           SKY/WX    TMP DP  RH WIND       PRES   REMARKS
BLOOMINGTON    MIX PCPN  33  30  88 CALM      30.23S
NORTH VERNON + LGT RAIN  34  32  93 CALM      30.25F
SEYMOUR +      LGT RAIN  36  30  80 SW7       30.26F

$$



USA.gov is the U.S. government's official web portal to all federal, state and local government web resources and services.